Flag for Germany Weather past 2 weeks in Viernheim, Hesse, Germany

Now
32 °F

Sunny.


Feels Like: 32 °F
Forecast: 34 / 51 °F
Wind: 1 mph from Southeast

Location: Baden Wurttemberg - Neuostheim

Current Time: Feb 28, 2015 at 8:01:22 AM

Latest Report: Feb 28, 2015 at 7:20 AM


Visibility: 10 mi

Pressure: 30.18 "Hg

Humidity: 93%

Dew point: 30 °F

Location of ViernheimLocation

Historic Weather in Viernheim — Graph

°F

Viernheim temperature yesterday

Maximum temperature yesterday: 41 °F (at 5:50 AM)
Minimum temperature yesterday: 39 °F (at 6:20 AM)
Average temperature yesterday: 40 °F

Past Weeks' High & Low Weather Summary

 TemperatureHumidityPressure
High55 °F (Feb 20, 3:20 PM)100% (Feb 14, 8:20 AM)30.74 "Hg (Feb 14, 8:20 AM)
Low28 °F (Feb 15, 7:50 AM)44% (Feb 20, 3:20 PM)29.47 "Hg (Feb 23, 2:20 PM)
Average39 °F77%30.05 "Hg
* Reported Feb 13 6:20 AM — Feb 28 6:50 AM, Viernheim, Weather by CustomWeather, © 2015

Note: Actual official high and low records may vary slightly from our data, if they occured in-between our weather recording intervals... More about our weather records

Advertising

Viernheim weather history for previous 24 hours

 ConditionsComfort  
Time TempWeatherWind HumidityBarometerVisibility
6:50 AM
Sat, Feb 28
32 °FClear.No wind93%30.18 "Hg10 mi
9:20 PM
Fri, Feb 27
41 °FClear.9 mph76%30.12 "Hg10 mi
8:50 PM41 °FOvercast.8 mph81%30.12 "HgN/A
8:20 PM41 °FMostly cloudy.9 mph81%30.09 "HgN/A
7:50 PM41 °FMostly cloudy.8 mph81%30.09 "HgN/A
7:20 PM41 °FPassing clouds.12 mph81%30.07 "HgN/A
6:50 PM41 °FOvercast.10 mph81%30.07 "HgN/A
6:20 PM41 °FPassing clouds.7 mph87%30.07 "HgN/A
5:50 PM41 °FLight rain. Partly sunny.9 mph87%30.04 "Hg5 mi
5:20 PM41 °FLight rain. Broken clouds.13 mph87%30.01 "Hg6 mi
4:50 PM41 °FLight rain. Partly sunny.15 mph87%30.01 "Hg5 mi
4:20 PM41 °FLight rain. Mostly cloudy.13 mph87%29.98 "Hg5 mi
3:50 PM41 °FLight rain. Partly sunny.9 mph93%29.98 "HgN/A
3:20 PM41 °FLight rain. Broken clouds.8 mph93%29.95 "HgN/A
2:50 PM41 °FLight rain. Partly sunny.9 mph93%29.95 "HgN/A
2:20 PM41 °FLight rain. Low clouds.10 mph93%29.92 "HgN/A
1:50 PM41 °FLight rain. Partly sunny.6 mph93%29.92 "Hg6 mi
1:20 PM41 °FLight rain. Mostly cloudy.6 mph93%29.92 "Hg6 mi
12:50 PM41 °FMostly cloudy.5 mph87%29.89 "HgN/A
12:20 PM41 °FLight rain. Mostly cloudy.6 mph87%29.89 "Hg6 mi
11:50 AM39 °FMore clouds than sun.3 mph93%29.89 "HgN/A
11:20 AM39 °FLight rain. More clouds than sun.3 mph87%29.89 "HgN/A
10:50 AM39 °FLight rain. Broken clouds.5 mph93%29.86 "Hg6 mi
10:20 AM39 °FLight rain. Overcast.3 mph93%29.86 "Hg5 mi
9:50 AM39 °FLight rain. Overcast.2 mph93%29.86 "Hg6 mi
9:20 AM39 °FLight rain. Overcast.2 mph87%29.83 "Hg6 mi
8:50 AM39 °FLight rain. Overcast.1 mph87%29.83 "Hg6 mi
8:20 AM39 °FLight rain. Overcast.1 mph87%29.83 "HgN/A
Weather by CustomWeather, © 2015

See weather overviewHow to use our weather pages